Weather in Sorum

Russia / Khanty-Mansi Autonomous Okrug — Yugra     64°12′43″N   69°02′21″E
temp.,
°C
wind,
m/s
gust,
m/s
humid.,
%
clouds,
%
prec.,
mm/h
press.,
hPa
HPBL,
m
17 april, sat
sat1723:00−4w7149378 0.1 1018549
02:00−7nw712845 0.1 1018331
05:00−10nw3689100 0.1 1019203
08:00−9ne4469100 0.0 1018396
11:00−7ene4465100 0.0 1017624
14:00−6ene5563100 0.0 1015841
17:00−8ne5669100 0.0 1016811
20:00−10ne6980100 0.0 1017528
18 april, sun
sun1823:00−13ne61089100 0.0 1019420
02:00−17nne5119244 0.0 1022292
05:00−19nne410925 0.0 1026254
08:00−16n598258 0.0 1028449
11:00−11n71076100 0.0 10291098
14:00−9n71069100 0.1 10301559
17:00−9n7106699 0.3 10311476
20:00−10nnw6117567 0.0 1032261
19 april, mon
mon1923:00−12nnw6138077 0.0 1032346
02:00−14nnw499151 0.0 1033188
05:00−16nw35937 0.0 103493
08:00−11nw46755 0.0 1034313
11:00−8w676779 0.0 1033717
14:00−5w7962100 0.0 10301128
17:00−4wsw71277100 0.0 10271096
20:00−4wsw71595100 1.4 1023725
20 april, tue
tue2023:00−3w81696100 2.9 1019676
02:00−1wnw91997100 1.3 1015756
05:00+1nw101787100 1.8 1014789
08:00+1nw91884100 0.0 1014733
11:00+1nw91796100 0.1 1014846
14:00+2nw9149689 0.1 1015782
17:00+1n9158698 0.3 10181058
20:00−2n6118628 0.1 1023453
21 april, wed
wed2123:00−4n359097 0.1 102698
02:00−4nne238645 0.0 102846
05:00−6e119464 0.0 103112
08:00−4s23815 0.0 1033229
11:00−1s33735 0.0 1034503
14:00+1ssw446455 0.0 1035670
17:00+2ssw4566100 0.0 1035594
20:000s3677100 0.0 103687